Ana Sayfa
METAR-TAF:

METAR-TAF

Havaalanları :

Boulder City, Nevada, Amerika Birleşik Devletleri

Enlem: 35-56-50N, Boylam: 114-51-37W, yükseklik: 671 m

Güncel hava durumu gözlemi

Rapor saat 17:55 UTC de 10 dakika önce yapıldı.
Rüzgar güneybatıdan 4 kt
Sıcaklık 33°C
Nem 15%
Basınç 1016 hPa
Görüş mesafesi: 16.1 km
Açık gökyüzü

METAR: KBVU 221755Z AUTO 23004KT 10SM CLR 33/03 A3001 RMK AO2

Saat: 11:05 (18:05 UTC)


TAF: eksik

4.000'den fazla havaalanı için hava durumu gözlemleri ve tahminleri (METAR ve TAF raporları).

Kullanılabilir istasyonlar harita üzerinde sarı ve kırmızı noktalarla gösterilir.

İstasyonun adını görmek için fareyi noktanın üzerinde gezdirin.

Sonrasında hava gözlem ve tahminlerini görmek için tıklayın.

Haritayı değiştirmek için: yaklaştırmak için siyah artı işaretli yeşil düğmeye ve uzaklaştırmak için de eksi işaretli düğmeye hızla tıklayın; bitişik haritalar için yeşil okları kullanın.


METAR-TAF: